Location: Arrodets-la-Barthe
(43.0306°N, 0.2829°E)
Time: 02:21:14
(UTC+00:00)

DUCHIFAT 1 - Pass Details

Date: 02 April 2023
Orbit: 567 x 581 km, 98.1° (Epoch: 29 May)

Event Time Altitude Azimuth Distance (km) Brightness Sun altitude
Rises 04:45:35 0° 350° (N) 2,791 ? -10.5°
Reaches altitude 10° 04:49:31 10° 312° (NW) 1,880 ? -9.8°
Maximum altitude 04:50:22 11° 300° (WNW) 1,842 ? -9.7°
Drops below altitude 10° 04:51:12 10° 288° (WNW) 1,876 ? -9.6°
Enters shadow 04:51:34 10° 282° (WNW) 1,913 ? -9.5°
